sat.trackr.live / text

‹ back to catalog

STARLINK-34571

NORAD 64914 · 2025-157L

PAYLOAD ACTIVE UNKNOWN

§ Identity

Operator
Country
US
Launch date
2025-07-26
Launch site
AFETR
Launch vehicle
Mass (kg)
RCS (m²)

Purposes: comms

External: N2YO · Heavens-Above · Gunter

§ Orbital elements

Epoch: 2026-09-20T23:03:19.603584Z

Period
93.85 min
Inclination
53.1562°
Eccentricity
0.0001235
Mean motion
15.34397315 rev/d
Perigee alt
461.9 km
Apogee alt
463.6 km
Semi-major
6,840.8 km
B*
3.8243e-4
RAAN
155.6069°
Arg perigee
95.2583°
Mean anomaly
264.8561°
Rev number
6,601

§ Raw data

STARLINK-345711 64914U 25157L   26263.96064356  .00012566  00000+0  38243-3 0  99942 64914  53.1562 155.6069 0001235  95.2583 264.8561 15.34397315 66019

JSON: /api/v1/satellites/64914 · /tle

For live sub-satellite position, see the globe view (requires WebGL).

§ Visibility from observer

Set your observer location to see the next 7 days of passes ≥ 10°. The values pass through the URL so the page stays shareable.

No JS? Fill the form by hand. The geolocation button needs JavaScript.